Location: Golden Pond Observatory
(36.7667°N, 88.0167°W)
Time: 08:53:38
(UTC-06:00)

Tiangong 2 - Visible Passes

Search period start: 22 February 2018 00:00
Search period end: 04 March 2018 00:00
Orbit: 384 x 388 km, 42.8° (Epoch: 22 February)

Date Brightness Start Highest point End Pass type
(mag) Time Alt. Az. Time Alt. Az. Time Alt. Az.
22 Feb 1.4 18:36:56 10° WNW 18:40:05 63° SSW 18:42:17 18° SE visible
23 Feb 3.6 19:15:27 10° W 19:17:37 17° SW 19:18:57 14° S visible
24 Feb 2.8 18:15:54 10° W 18:18:48 32° SSW 18:21:39 10° SSE visible
